Location: Recife
(8.0585°S, 34.8848°W)
Time: 10:45:50
(UTC-03:00)

Vanguard 2 Rocket - Pass Details

Date: 18 April 2026
Orbit: 553 x 3286 km, 32.9° (Epoch: 8 May)

Event Time Altitude Azimuth Distance (km) Brightness Sun altitude
Rises 12:55:42 0° 234° (SW) 6,671 11.4 59.3°
Reaches altitude 10° 12:59:47 10° 233° (SW) 5,876 11.3 58.5°
Maximum altitude 13:19:40 82° 145° (SE) 3,278 10.6 54.4°
Drops below altitude 10° 13:37:28 10° 59° (ENE) 5,367 10.7 50.6°
Sets 13:40:59 0° 58° (ENE) 6,098 10.9 49.8°
